Location: Unspecified
(0.0000°N, 0.0000°E)
Time: 14:34:21
(UTC+00:00)

Courier 1B - Visible Passes

Search period start: 21 February 2019 00:00
Search period end: 03 March 2019 00:00
Orbit: 963 x 1209 km, 28.3° (Epoch: 20 February)

Date Brightness Start Highest point End Pass type
(mag) Time Alt. Az. Time Alt. Az. Time Alt. Az.
21 Feb 9.8 02:51:23 22° ESE 02:51:23 22° ESE 02:53:50 10° ESE visible
21 Feb 8.5 04:38:17 35° WSW 04:40:35 42° SSW 04:47:57 10° SE visible
22 Feb 8.4 03:48:04 49° S 03:48:04 49° S 03:54:14 10° SE visible
22 Feb 9.5 05:36:13 10° WSW 05:41:28 19° SSW 05:46:47 10° SSE visible
23 Feb 9.7 02:57:49 23° SE 02:57:49 23° SE 03:00:22 10° SE visible
23 Feb 9.1 04:44:44 21° SW 04:47:16 25° SSW 04:53:29 10° SSE visible
24 Feb 9.0 03:54:27 31° S 03:54:27 31° S 04:00:01 10° SE visible
24 Feb 9.9 05:46:03 10° SW 05:48:35 12° SSW 05:51:07 10° S visible
25 Feb 9.8 03:04:08 20° SSE 03:04:08 20° SSE 03:06:22 10° SE visible
25 Feb 9.7 04:51:03 12° SW 04:54:12 15° SSW 04:58:27 10° SSE visible
26 Feb 9.5 04:00:42 19° SSW 04:00:42 19° SSW 04:05:18 10° SSE visible
27 Feb 10.0 03:10:21 15° SSE 03:10:21 15° SSE 03:11:55 10° SSE visible
28 Feb 9.9 04:06:51 12° SSW 04:07:02 12° SSW 04:09:38 10° S visible
01 Mar 10.2 03:16:27 11° S 03:16:27 11° S 03:16:51 10° SSE visible
